Home   Weather   Delta   Past weeks

Flag for Canada Past Weather in Delta, British Columbia, Canada — Yesterday and Last 2 Weeks

Now
45 °F

Passing clouds.


Feels Like: 42 °F
Forecast: 40 / 56 °F
Wind: 5 mph from Northwest

Location: Vancouver International Airport

Current Time: Apr 28, 2017 at 5:41:02 am

Latest Report: Apr 28, 2017 at 5:00 am


Visibility: 20 mi

Pressure: 30.25 "Hg

Humidity: 93%

Dew Point: 43 °F

Location of DeltaLocation

Past Weather in Delta — Graph

°F

Delta Temperature Yesterday

Maximum temperature yesterday: 54 °F (at 12:00 pm)
Minimum temperature yesterday: 46 °F (at 4:00 am)
Average temperature yesterday: 51 °F

High & Low Weather Summary for the Past Weeks

 TemperatureHumidityPressure
High59 °F (Apr 26, 2:00 pm)100% (Apr 18, 9:00 am)30.42 "Hg (Apr 18, 9:00 am)
Low37 °F (Apr 16, 6:00 am)45% (Apr 26, 3:00 pm)29.68 "Hg (Apr 13, 4:45 am)
Average50 °F80%29.96 "Hg
* Reported Apr 13 4:00 am — Apr 28 4:00 am, Delta, Weather by CustomWeather, © 2017

Note: Actual official high and low records may vary slightly from our data, if they occured in-between our weather recording intervals... More about our weather records

Advertising

Delta Weather History for the Previous 24 Hours

Scroll right to see more
 ConditionsComfort  
Time TempWeatherWind HumidityBarometerVisibility
4:00 am
Fri, Apr 28
43 °FPassing clouds.6 mph87%30.23 "Hg20 mi
3:00 am45 °FPassing clouds.2 mph87%30.21 "Hg20 mi
2:00 am43 °FPassing clouds.3 mph93%30.20 "Hg20 mi
1:00 am46 °FPassing clouds.5 mph82%30.18 "Hg20 mi
12:00 am48 °FPassing clouds.7 mph82%30.16 "Hg20 mi
11:00 pm
Thu, Apr 27
48 °FPassing clouds.9 mph82%30.16 "Hg20 mi
10:00 pm48 °FPassing clouds.10 mph82%30.14 "Hg30 mi
9:00 pm50 °FPassing clouds.6 mph76%30.12 "Hg30 mi
8:00 pm50 °FPassing clouds.9 mph76%30.10 "Hg30 mi
7:00 pm50 °FPassing clouds.10 mph76%30.09 "Hg30 mi
6:00 pm54 °FScattered clouds.17 mph67%30.08 "Hg30 mi
5:00 pm54 °FScattered clouds.10 mph63%30.08 "Hg30 mi
4:00 pm54 °FScattered clouds.10 mph63%30.07 "Hg30 mi
3:00 pm54 °FScattered clouds.12 mph67%30.07 "Hg30 mi
2:00 pm54 °FScattered clouds.13 mph58%30.06 "Hg30 mi
1:00 pm54 °FPassing clouds.13 mph63%30.05 "Hg30 mi
12:00 pm54 °FScattered clouds.14 mph67%30.05 "Hg30 mi
11:00 am52 °FBroken clouds.15 mph77%30.04 "Hg30 mi
10:00 am52 °FPartly sunny.15 mph72%30.03 "Hg30 mi
9:00 am52 °FBroken clouds.18 mph67%30.02 "Hg30 mi
8:00 am50 °FPartly sunny.17 mph71%30.01 "Hg30 mi
7:00 am48 °FPartly sunny.15 mph76%29.99 "Hg20 mi
6:00 am48 °FBroken clouds.17 mph76%29.98 "Hg20 mi
5:00 am48 °FPartly cloudy.15 mph76%29.96 "Hg20 mi
Weather by CustomWeather, © 2017

See weather overviewHow to use our weather pages